www.pogodaiklimat.ru

Погода и климат >> Архив погоды >> Норвегия >> Fedje


ПОГОДА в Fedje

  • Прогноз погоды в Fedje
  • Монитор погоды в Fedje
  • Климат города

АРХИВ ПОГОДЫ в Fedje

Время (UTC), дата Ветер
(напр.,м/с)
 
Видим.   Явления Облачность Т
(С)
Тd
(С)
f
(%)
Тe
(С)
Тes
(С)
Комфортность P
(гПа)
Po
(гПа)
Тmin
(С)
Tmax
(С)
R
(мм)
R24
(мм)
S
(см)
16 9.08 С 6
{9}
н/о н/о +18.6 +10.9 61 +19 +19 1011.9 1009.7
17 9.08 СЗ 6
{9}
н/о н/о +17.4 +12.5 73 +17 +17 1011.7 1009.5
18 9.08 СЗ 8
{10}
н/о н/о +16.3 +13.6 84 +15 +15 1012.0 1009.7 +13.8 +19.0
19 9.08 СЗ 9
{12}
н/о н/о +15.6 +13.1 85 +14 +14 1012.2 1009.9
20 9.08 СЗ 11
{15}
н/о н/о +14.9 +12.0 83 +12 +12 1012.7 1010.4
21 9.08 СЗ 8
{13}
н/о н/о +14.7 +11.5 81 +12 +12 1013.2 1010.9
22 9.08 СЗ 10
{14}
н/о н/о +14.7 +10.9 78 +12 +12 1013.8 1011.5
23 9.08 С 8
{13}
н/о н/о +14.5 +10.1 75 +12 +12 1014.2 1011.9
00 10.08 С 6
{15}
н/о н/о +14.5 +9.3 71 +13 +13 1014.8 1012.5
01 10.08 СЗ 9
{11}
н/о н/о +14.6 +9.8 73 +12 +12 1015.2 1012.9
02 10.08 СЗ 9
{12}
н/о н/о +14.3 +9.9 75 +12 +12 1015.7 1013.4
03 10.08 СЗ 8
{11}
н/о н/о +14.1 +10.1 77 +12 +12 1015.9 1013.6
04 10.08 З 5
{9}
н/о н/о +13.9 +9.4 74 +12 +12 1016.1 1013.8
05 10.08 З 4
{7}
н/о н/о +13.9 +10.3 79 +12 +12 1016.2 1013.9
06 10.08 З 4
{12}
н/о н/о +14.0 +9.3 73 +13 +13 1016.3 1014.0 +13.8 +16.3
07 10.08 ЮЗ 6
{8}
н/о н/о +13.9 +11.1 83 +12 +12 1016.5 1014.2
08 10.08 ЮЗ 7 н/о н/о +13.5 +11.7 89 +11 +11 1016.7 1014.4
09 10.08 ЮЗ 8
{9}
н/о н/о +13.7 +12.3 91 +11 +11 1016.8 1014.5
10 10.08 ЮЗ 9
{11}
н/о н/о +14.1 +12.7 91 +11 +11 1016.9 1014.6
11 10.08 ЮЗ 9
{11}
н/о н/о +13.5 +12.1 91 +11 +11 1016.8 1014.5
12 10.08 ЮЗ 10
{12}
н/о н/о +14.4 +12.1 86 +12 +12 1017.0 1014.7
13 10.08 ЮЗ 9
{13}
н/о н/о +14.7 +12.4 86 +12 +12 1017.2 1014.9
14 10.08 ЮЗ 10
{15}
н/о н/о +14.9 +12.4 85 +12 +12 1017.0 1014.7
15 10.08 ЮЗ 10
{14}
н/о н/о +14.6 +12.5 87 +12 +12 1016.8 1014.5
16 10.08 ЮЗ 10
{13}
н/о н/о +14.5 +12.2 86 +12 +12 1016.6 1014.3
17 10.08 ЮЗ 10 н/о н/о +14.5 +11.8 84 +12 +12 1016.4 1014.1
18 10.08 ЮЗ 11
{15}
н/о н/о +14.4 +11.2 81 +12 +12 1016.4 1014.1 +13.3 +14.9
19 10.08 ЮЗ 11
{14}
н/о н/о +13.7 +11.6 87 +11 +11 1016.3 1014.0
20 10.08 ЮЗ 11
{15}
н/о н/о +14.4 +11.4 82 +12 +12 1016.2 1013.9
21 10.08 Ю 11
{14}
н/о н/о +14.1 +11.4 84 +11 +11 1015.9 1013.6
22 10.08 Ю 10
{15}
н/о н/о +13.6 +11.8 89 +11 +11 1015.7 1013.4
23 10.08 Ю 12
{14}
н/о н/о +14.4 +11.2 81 +11 +11 1014.9 1012.6
00 11.08 Ю 13
{16}
н/о н/о +14.4 +11.2 81 +11 +11 1013.7 1011.4
01 11.08 Ю 14
{17}
н/о н/о +14.6 +10.8 78 +11 +11 1012.9 1010.6
02 11.08 Ю 13
{17}
н/о н/о +14.7 +11.5 81 +12 +12 1012.0 1009.7
03 11.08 Ю 15
{18}
н/о н/о +14.6 +11.4 81 +11 +11 1011.3 1009.0
04 11.08 Ю 14
{19}
н/о н/о +14.9 +11.7 81 +12 +12 1010.4 1008.1
05 11.08 Ю 15
{20}
н/о н/о +14.7 +12.4 86 +11 +11 1009.6 1007.3
06 11.08 Ю 17
{22}
н/о н/о +15.1 +11.7 80 +12 +12 1009.0 1006.7 +13.4 +15.2
07 11.08 Ю 18
{23}
н/о н/о +15.3 +11.3 77 +12 +12 1008.7 1006.4
08 11.08 Ю 16
{22}
н/о н/о +15.3 +11.7 79 +12 +12 1008.4 1006.1
09 11.08 Ю 17
{23}
н/о н/о +15.3 +11.1 76 +12 +12 1008.5 1006.2
10 11.08 Ю 16
{23}
н/о н/о +15.3 +11.5 78 +12 +12 1008.0 1005.7
11 11.08 Ю 16
{21}
н/о н/о +15.0 +12.3 84 +12 +12 1007.7 1005.4
12 11.08 Ю 17
{23}
н/о н/о +14.8 +12.1 84 +11 +11 1007.0 1004.7
13 11.08 Ю 16
{22}
н/о н/о +14.8 +12.0 83 +12 +12 1006.3 1004.0
14 11.08 Ю 17
{22}
н/о н/о +14.2 +11.7 85 +10 +10 1005.9 1003.6
15 11.08 Ю 17
{25}
н/о н/о +15.0 +11.4 79 +12 +12 1005.1 1002.9
16 11.08 Ю 18
{22}
н/о н/о +13.5 +11.4 87 +9 +9 1004.9 1002.6
17 11.08 Ю 16
{22}
н/о н/о +13.8 +12.7 93 +10 +10 1004.3 1002.0
18 11.08 Ю 15
{25}
н/о н/о +13.9 +13.0 94 +10 +10 1003.7 1001.4 +15.4
19 11.08 Ю 16
{21}
н/о н/о +14.2 +13.3 94 +11 +11 1003.3 1001.1
20 11.08 Ю 15
{19}
н/о н/о +14.4 +13.5 94 +11 +11 1003.1 1000.9
21 11.08 Ю 13
{19}
н/о н/о +14.5 +13.7 95 +11 +11 1002.8 1000.6
22 11.08 Ю 12
{16}
н/о н/о +14.6 +13.8 95 +12 +12 1002.6 1000.4
23 11.08 Ю 10
{14}
н/о н/о +14.6 +13.7 94 +12 +12 1002.0 999.8
00 12.08 Ю 10
{21}
н/о н/о +14.6 +13.3 92 +12 +12 1001.8 999.6
01 12.08 ЮЗ 11
{13}
н/о н/о +14.6 +13.0 90 +12 +12 1001.6 999.4
02 12.08 ЮЗ 10
{14}
н/о н/о +13.9 +11.6 86 +11 +11 1001.8 999.6
03 12.08 ЮЗ 11
{13}
н/о н/о +13.7 +11.6 87 +11 +11 1001.9 999.7
04 12.08 ЮЗ 8
{12}
н/о н/о +13.7 +11.6 87 +11 +11 1002.4 1000.1
05 12.08 З 7
{9}
н/о н/о +13.5 +11.7 89 +11 +11 1002.7 1000.4
06 12.08 СЗ 12
{14}
н/о н/о +12.3 +11.0 92 +8 +8 1003.5 1001.2 +12.3 +14.7
07 12.08 СЗ 10
{14}
н/о н/о +12.4 +10.6 89 +9 +9 1004.4 1002.1
08 12.08 СЗ 8 н/о н/о +12.2 +10.3 88 +9 +9 1005.0 1002.7
09 12.08 СЗ 10
{12}
н/о н/о +13.4 +9.3 76 +10 +10 1005.6 1003.3
10 12.08 СЗ 7
{12}
н/о н/о +13.6 +9.1 74 +11 +11 1006.4 1004.1
11 12.08 СЗ 7
{9}
н/о н/о +13.9 +9.0 72 +12 +12 1006.9 1004.6
12 12.08 СЗ 8
{14}
н/о н/о +14.4 +8.8 69 +12 +12 1007.2 1004.9
13 12.08 СЗ 8
{10}
н/о н/о +14.3 +9.1 71 +12 +12 1007.4 1005.1
14 12.08 С 7
{10}
н/о н/о +14.8 +8.5 66 +13 +13 1007.6 1005.3
15 12.08 С 8
{12}
н/о н/о +14.6 +8.6 67 +12 +12 1007.8 1005.5
16 12.08 С 8
{13}
н/о н/о +14.2 +7.5 64 +12 +12 1008.0 1005.7
17 12.08 С 7
{12}
н/о н/о +13.9 +7.7 66 +12 +12 1008.2 1005.9
18 12.08 С 9
{13}
н/о н/о +13.2 +6.8 65 +10 +10 1008.4 1006.1 +12.0 +15.2
19 12.08 С 7
{12}
н/о н/о +12.7 +6.5 66 +10 +10 1008.8 1006.5
20 12.08 С 8
{12}
н/о н/о +12.4 +5.8 64 +9 +9 1009.1 1006.8
21 12.08 С 7
{12}
н/о н/о +12.2 +5.4 63 +9 +9 1009.6 1007.3
22 12.08 С 6
{11}
н/о н/о +12.0 +5.9 66 +9 +9 1009.8 1007.5
23 12.08 С 6
{9}
н/о н/о +12.1 +6.0 66 +10 +10 1010.1 1007.8
00 13.08 С 5
{12}
н/о н/о +12.2 +6.1 66 +10 +10 1010.4 1008.1
01 13.08 СЗ 5
{9}
н/о н/о +12.2 +6.1 66 +10 +10 1010.6 1008.3
02 13.08 СЗ 4
{7}
н/о н/о +12.6 +6.4 66 +11 +11 1010.7 1008.4
03 13.08 СЗ 5
{11}
н/о н/о +11.6 +6.7 72 +9 +9 1011.0 1008.7
04 13.08 З 4
{6}
н/о н/о +12.0 +6.5 69 +10 +10 1011.2 1008.9
05 13.08 СВ 2
{8}
н/о н/о +10.4 +6.0 74 +9 +9 1011.5 1009.2
06 13.08 З 4
{11}
н/о н/о +12.3 +6.6 68 +10 +10 1011.7 1009.4 +10.4 +13.3
07 13.08 З 5
{7}
н/о н/о +12.7 +6.3 65 +11 +11 1012.0 1009.7
08 13.08 ЮЗ 6
{8}
н/о н/о +13.1 +6.0 62 +11 +11 1012.5 1010.2
09 13.08 ЮЗ 8
{10}
н/о н/о +13.5 +6.8 64 +11 +11 1012.9 1010.6
10 13.08 ЮЗ 9
{11}
н/о н/о +13.3 +6.9 65 +10 +10 1013.2 1010.9
11 13.08 ЮЗ 8
{12}
н/о н/о +13.8 +9.1 73 +11 +11 1013.6 1011.3
12 13.08 ЮЗ 9
{12}
н/о н/о +13.7 +8.1 69 +11 +11 1013.7 1011.4
13 13.08 ЮЗ 8
{11}
н/о н/о +14.1 +7.9 66 +12 +12 1014.1 1011.8
14 13.08 З 8
{11}
н/о н/о +13.9 +7.7 66 +11 +11 1014.4 1012.1
15 13.08 З 7
{10}
н/о н/о +13.9 +9.0 72 +12 +12 1014.9 1012.6
16 13.08 З 7
{11}
н/о н/о +13.6 +8.5 71 +11 +11 1015.3 1013.0
17 13.08 ЮЗ 6
{10}
н/о н/о +12.7 +8.6 76 +10 +10 1015.8 1013.5
18 13.08 З 5
{11}
н/о н/о +12.6 +9.1 79 +10 +10 1016.0 1013.7 +12.2 +14.4
19 13.08 Ю 4
{9}
н/о н/о +12.8 +9.3 79 +11 +11 1016.4 1014.1
20 13.08 З 6
{8}
н/о н/о +13.1 +7.3 68 +11 +11 1016.8 1014.5
21 13.08 З 6
{10}
н/о н/о +13.2 +7.9 70 +11 +11 1017.1 1014.8
22 13.08 З 5
{9}
н/о н/о +13.2 +7.7 69 +11 +11 1017.5 1015.2
23 13.08 З 6
{8}
н/о н/о +13.1 +8.4 73 +11 +11 1017.7 1015.4
00 14.08 З 5
{10}
н/о н/о +13.1 +6.9 66 +11 +11 1017.9 1015.6
01 14.08 З 5
{8}
н/о н/о +13.0 +8.5 74 +11 +11 1018.2 1015.9
02 14.08 З 6
{9}
н/о н/о +12.9 +8.2 73 +11 +11 1018.3 1016.0
03 14.08 З 6
{13}
н/о н/о +12.1 +7.4 73 +9 +9 1018.4 1016.1
04 14.08 ЮЗ 6
{7}
н/о н/о +12.9 +7.6 70 +11 +11 1018.7 1016.4
05 14.08 ЮЗ 5
{8}
н/о н/о +13.0 +7.0 67 +11 +11 1018.9 1016.6
06 14.08 ЮЗ 5
{13}
н/о н/о +13.1 +6.9 66 +11 +11 1019.3 1017.0 +11.9 +13.3
07 14.08 ЮЗ 5
{7}
н/о н/о +13.6 +7.6 67 +12 +12 1019.8 1017.5
08 14.08 Ю 6
{9}
н/о н/о +13.6 +7.6 67 +12 +12 1020.2 1017.9
09 14.08 Ю 6
{8}
н/о н/о +13.9 +8.3 69 +12 +12 1020.4 1018.1
10 14.08 Ю 7
{8}
н/о н/о +14.3 +9.1 71 +12 +12 1020.5 1018.2
11 14.08 Ю 8
{10}
н/о н/о +14.2 +8.8 70 +12 +12 1020.7 1018.4
12 14.08 Ю 8
{10}
н/о н/о +14.7 +9.3 70 +13 +13 1020.8 1018.5
13 14.08 Ю 8
{10}
н/о н/о +15.2 +8.7 65 +13 +13 1020.6 1018.3
14 14.08 Ю 8
{10}
н/о н/о +15.1 +9.5 69 +13 +13 1020.5 1018.2
15 14.08 Ю 7
{10}
н/о н/о +15.0 +8.9 67 +13 +13 1020.2 1017.9
16 14.08 ЮВ 8
{10}
н/о н/о +13.9 +9.6 75 +11 +11 1019.9 1017.6
17 14.08 ЮВ 7
{10}
н/о н/о +14.3 +10.3 77 +12 +12 1019.5 1017.2
18 14.08 ЮВ 6
{10}
н/о н/о +14.2 +10.2 77 +12 +12 1019.1 1016.8 +13.0 +15.6
19 14.08 ЮВ 6
{7}
н/о н/о +14.1 +10.3 78 +12 +12 1018.6 1016.3
20 14.08 ЮВ 6
{7}
н/о н/о +14.1 +10.3 78 +12 +12 1018.4 1016.1
21 14.08 ЮВ 8
{9}
н/о н/о +14.1 +10.5 79 +12 +12 1018.2 1015.9
22 14.08 ЮВ 11
{14}
н/о н/о +13.9 +9.9 77 +11 +11 1017.7 1015.4
23 14.08 ЮВ 9
{15}
н/о н/о +13.7 +10.3 80 +11 +11 1017.1 1014.8
00 15.08 ЮВ 10
{15}
н/о н/о +14.1 +9.7 75 +11 +11 1016.6 1014.3
01 15.08 ЮВ 14
{17}
н/о н/о +12.8 +10.9 88 +9 +9 1016.3 1014.0
02 15.08 ЮВ 13
{16}
н/о н/о +13.1 +10.8 86 +9 +9 1016.1 1013.8
03 15.08 ЮВ 11
{15}
н/о н/о +12.6 +10.7 88 +9 +9 1015.6 1013.3
04 15.08 ЮВ 12
{14}
н/о н/о +13.8 +10.6 81 +11 +11 1015.2 1012.9
05 15.08 ЮВ 11
{15}
н/о н/о +14.3 +9.9 75 +11 +11 1014.2 1011.9
06 15.08 ЮВ 9
{17}
н/о н/о +14.6 +9.2 70 +12 +12 1013.6 1011.3 +12.6 +14.8
07 15.08 ЮВ 9
{11}
н/о н/о +14.8 +9.8 72 +12 +12 1013.3 1011.0
08 15.08 ЮВ 8
{11}
н/о н/о +15.1 +10.3 73 +13 +13 1013.2 1010.9
09 15.08 ЮВ 9
{11}
н/о н/о +15.1 +10.7 75 +13 +13 1012.2 1009.9
10 15.08 В 10
{12}
н/о н/о +14.7 +9.9 73 +12 +12 1011.1 1008.8
11 15.08 ЮВ 10
{12}
н/о н/о +15.1 +10.1 72 +13 +13 1010.4 1008.1
12 15.08 ЮВ 9
{12}
н/о н/о +15.5 +10.1 70 +13 +13 1009.9 1007.6
13 15.08 ЮВ 11
{15}
н/о н/о +16.5 +10.1 66 +15 +15 1009.3 1007.1
14 15.08 ЮВ 15
{18}
н/о н/о +17.2 +10.6 65 +15 +15 1008.9 1006.7
15 15.08 ЮВ 16
{20}
н/о н/о +17.1 +11.6 70 +15 +15 1008.6 1006.4
16 15.08 Ю 14
{18}
н/о н/о +15.9 +12.8 82 +13 +13 1008.4 1006.2
17 15.08 ЮЗ 8
{19}
н/о н/о +14.7 +11.5 81 +12 +12 1009.8 1007.5
18 15.08 ЮЗ 7
{20}
н/о н/о +14.6 +11.2 80 +13 +13 1010.0 1007.7 +14.2 +17.2
19 15.08 ЮЗ 5
{7}
н/о н/о +14.6 +11.4 81 +13 +13 1010.5 1008.2
20 15.08 ЮЗ 5
{6}
н/о н/о +14.3 +11.1 81 +13 +13 1010.9 1008.6
21 15.08 ЮЗ 4
{6}
н/о н/о +14.2 +11.4 83 +13 +13 1011.1 1008.8
22 15.08 ЮЗ 3
{5}
н/о н/о +14.0 +11.3 84 +13 +13 1011.6 1009.3
23 15.08 ЮЗ 3
{4}
н/о н/о +14.1 +11.3 83 +13 +13 1011.8 1009.5
00 16.08 ЮЗ 3
{7}
н/о н/о +14.1 +11.3 83 +13 +13 1011.8 1009.5
01 16.08 ЮЗ 4
{5}
н/о н/о +14.0 +11.2 83 +13 +13 1012.0 1009.7
02 16.08 ЮЗ 4
{5}
н/о н/о +13.9 +10.9 82 +12 +12 1011.9 1009.6
03 16.08 Ю 4
{5}
н/о н/о +14.1 +10.7 80 +13 +13 1012.2 1009.9
04 16.08 Ю 5
{7}
н/о н/о +14.1 +11.4 84 +12 +12 1012.2 1009.9
05 16.08 Ю 5
{7}
н/о н/о +13.8 +11.9 88 +12 +12 1012.7 1010.4
06 16.08 ЮВ 6
{8}
н/о н/о +14.5 +12.0 85 +13 +13 1012.8 1010.5 +13.7 +14.7
07 16.08 Ю 8
{10}
н/о н/о +14.6 +11.9 84 +12 +12 1012.9 1010.6
08 16.08 Ю 9
{11}
н/о н/о +14.8 +12.3 85 +12 +12 1013.2 1010.9
09 16.08 ЮЗ 9
{12}
н/о н/о +15.0 +12.7 86 +13 +13 1013.9 1011.6
10 16.08 ЮЗ 8
{10}
н/о н/о +15.3 +12.3 82 +13 +13 1014.4 1012.1
11 16.08 ЮЗ 9
{10}
н/о н/о +15.3 +12.3 82 +13 +13 1014.6 1012.3
12 16.08 ЮЗ 9
{12}
н/о н/о +15.3 +12.3 82 +13 +13 1015.2 1012.9
13 16.08 ЮЗ 8
{10}
н/о н/о +15.6 +11.2 75 +14 +14 1015.6 1013.3
14 16.08 ЮЗ 8
{9}
н/о н/о +15.7 +10.7 72 +14 +14 1015.7 1013.4
15 16.08 Ю 8
{10}
н/о н/о +16.1 +10.4 69 +14 +14 1015.6 1013.3
16 16.08 Ю 9
{11}
н/о н/о +16.1 +10.9 71 +14 +14 1015.5 1013.2

 

Местоположение метеостанции Fedje (Норвегия): широта 60.78 долгота 4.72 высота над уровнем моря 19 м.

В архиве по умолчанию представлена погода в Fedje за последнюю неделю. Архивные данные за месяц целиком и за предыдущие месяцы, начиная с января 2011 года, Вы можете получить, выбрав интересующий диапазон дат из раскрывающегося списка и нажав кнопку "Ввод!".

Внимание! Время в таблицах - всемирное. Для получения местного времени необходимо прибавить поправку, которая в Fedje равна 1 ч.

Смотрите также архив погоды в соседних городах и на ближайших метеорологических станциях:

Погода в Takle (Норвегия) (45 км)
Погода в Bergen (Норвегия) (56 км)
Погода в Furuneset (Норвегия) (59 км)
Погода в Fossmark (Норвегия) (62 км)
Погода в Modalen III (Норвегия) (68 км)
Погода в Evanger (Норвегия) (77 км)
Погода в Kvamskogen (Норвегия) (82 км)
Погода в Bulken (Норвегия) (83 км)
Погода в Ytteroyane Fyr (Норвегия) (88 км)
Погода в Forde Lifthavn (Норвегия) (88 км)

Пояснения к столбцам:

Ветер - указаны скорость ветра в м/с - средняя за 10 мин, порывы в срок и между сроками (в фигурных скобках) и направление, откуда дует ветер: С - северный, СВ - северо-восточный, В - восточный, ЮВ - юго-восточный, Ю - южный, ЮЗ - юго-западный, З - западный, СЗ - северо-западный.
Видимость - горизонтальная дальность видимости в метрах или километрах. При видимости от 1 до 10 км при отсутствии осадков обычно наблюдается дымка, при ухудшении видимости до 1 км и менее - туман. В сухую погоду видимость может ухудшаться дымом, пылью или мглою.
Явления - указаны атмосферные явления, наблюдавшиеся в срок или в последний час перед сроком; фигурными скобками обозначены явления, наблюдавшиеся между сроками (за 1-3 часа до срока); квадратными скобками обозначены град или гололедные отложения с указанием их диаметра в мм.
Облачность - указаны через наклонную черту общая и нижняя облачность в баллах и высота нижней границы облаков в метрах; квадратными скобками обозначены формы облаков: Ci - перистые, Cs - перисто-слоистые, Cc - перисто-кучевые, Ac - высококучевые, As - высокослоистые, Sc - слоисто-кучевые, Ns - слоисто-дождевые, Cu - кучевые, Cb - кучево-дождевые. Подробнее классификацию облаков см. в Атласе облаков (PDF).
T - Температура воздуха - температура, измеренная на высоте 2 м над землей.
Td - Температура точки росы - температура, при понижении до которой содержащийся в воздухе водяной пар достигнет насыщения.
f - Относительная влажность воздуха - влажноcть воздуха, измеренная на высоте 2 м над землей.
Te - Эффективная температура - температура, которую ощущает одетый по сезону человек в тени. Характеристика душности погоды. При расчете учитывается влияние влажности воздуха и скорости ветра на теплоощущения человека.
Tes - Эффективная температура на солнце - температура, которую ощущает человек, с поправкой на солнечный нагрев. Характеристика знойности погоды. Зависит от высоты солнца над горизонтом, облачности и скорости ветра. Ночью, в пасмурную погоду, а также при ветре 12 м/с и более поправка равна нулю.
P - Атмосферное давление - приведенное к уровню моря атмосферное давление.
Po - Атмосферное давление - измеренное на уровне метеостанции атмосферное давление.
Tmin - Минимальная температура - минимум температуры воздуха на высоте 2 м над землей.
Tmax - Максимальная температура - максимум температуры воздуха на высоте 2 м над землей.
R - Количество осадков - Количество выпавших осадков за период времени, мм. При наведении курсора мыши на число - период времени, за который выпало указанное количество осадков.
R24 - Количество осадков - Количество выпавших осадков за 24 часа, мм.
S - Снежный покров - Высота снежного покрова, см. При наведении курсора мыши на число - состояние снежного покрова и степень покрытия местности в баллах.